{"data":{"norad_id":65275,"intl_designator":"2025-184C","name":"STARLINK-34954","alt_names":[],"object_type":"PAYLOAD","status":"ACTIVE","operator":null,"country":"US","launch_date":"2025-08-22","launch_site_code":"AFWTR","launch_vehicle":null,"mission":null,"orbit_class":"UNKNOWN","rcs_meters":null,"size_class":null,"mass_kg":null,"dimensions":null,"purposes":["comms"],"wikipedia_slug":null,"has_3d_model":false,"image_url":null,"decayed_at":null,"tle_current":{"epoch":"2026-05-25T02:28:08.948640Z","epoch_age_seconds":60096,"freshness":"FRESH","line1":"1 65275U 25184C   26145.10288135 -.00000664  00000+0 -41980-4 0  9994","line2":"2 65275  97.4527 197.5353 0001474 157.2784 202.8508 15.05641694 42792","mean_motion":15.05641694,"eccentricity":0.0001474,"inclination_deg":97.4527,"raan_deg":197.5353,"arg_perigee_deg":157.2784,"mean_anomaly_deg":202.8508,"bstar":-4.198e-5,"rev_number":4279,"period_min":95.640284520442,"perigee_km":548.51549289441,"apogee_km":550.55777108112,"semimajor_km":6927.6736319878,"source":"CELESTRAK","updated_at":"2026-05-25T13:38:20.729561Z"}}}